Temp
9 9 9 9 9 9 8 8 8 8 8 8 8 8 8 8 8 8 8 8 8 8 8 8 8 8 7 7 7 7 7 7 7 7 7 7 7 7 7 7 7 7 7 7 7 7 7 7 7 7 7 7 7 7 7 7 7 7 8 8 8 8 8 9 9 9 9 9 9
8 9 9 9 9 8 8 8 8 8 8 8 8 8 8 8 8 8 8 8 8 8 8 7 7 7 7 7 7 7 7 7 7 7 7 7 7 7 7 7 7 7 6 6 6 7 7 7 7 7 7 7 7 7 7 7 7 7 7 7 8 8 8 8 8 8 9 9 9
9 9 9 8 8 8 8 8 8 8 8 8 8 7 7 7 7 7 7 7 7 7 7 7 7 7 6 6 6 6 6 6 6 6 7 7 7 7 6 6 6 6 6 6 6 6 6 6 6 6 7 7 7 7 7 7 7 7 7 7 7 8 8 8 8 8 8 8 8
8 8 8 8 8 8 8 8 8 8 8 8 7 7 7 7 7 7 7 7 7 7 7 7 6 6 6 6 6 6 6 6 6 6 6 6 6 6 6 6 6 6 6 6 6 6 6 6 6 6 6 6 6 7 7 7 7 7 7 7 7 7 8 8 8 8 8 8 8
8 8 8 8 8 8 8 8 8 7 7 7 7 7 7 7 7 7 7 7 7 7 7 7 6 6 5 5 6 6 6 6 6 6 6 6 6 6 6 6 6 6 6 6 5 5 5 5 5 5 6 6 6 6 6 6 7 7 7 7 7 7 7 7 7 8 8 8 8
8 8 8 8 8 8 8 7 7 7 7 7 7 7 7 7 7 7 7 7 7 7 6 6 6 5 5 5 5 6 6 6 6 6 6 6 5 5 5 5 5 5 5 5 5 5 5 5 5 5 5 5 5 6 6 6 6 6 6 7 7 7 7 7 7 7 7 8 8
8 8 8 8 8 7 7 7 7 7 6 6 6 7 7 7 7 6 6 6 6 6 6 6 5 5 5 5 5 5 5 5 5 5 5 5 5 5 5 5 5 5 5 5 5 4 4 4 5 5 5 5 5 5 5 5 6 6 6 6 6 6 7 7 7 7 7 7 7
8 8 8 7 7 7 7 7 6 6 6 6 6 6 6 6 6 6 6 6 6 6 6 5 5 5 5 5 5 5 5 5 5 4 4 4 4 4 4 4 4 4 4 4 4 4 4 4 4 4 5 5 5 5 5 5 5 5 5 6 6 6 6 6 6 6 7 7 7
8 8 8 7 7 7 7 6 6 6 6 6 6 6 6 6 6 6 6 6 6 6 5 5 5 5 5 5 5 5 4 4 4 4 4 4 4 4 4 4 4 4 4 4 4 4 4 4 4 4 4 4 5 5 5 5 5 5 5 5 5 5 6 6 6 6 6 6 6
8 8 7 7 7 6 6 6 6 6 6 6 6 6 6 6 5 5 5 5 5 5 5 5 5 5 5 4 4 4 4 4 4 3 3 3 3 3 3 3 3 3 3 4 4 4 4 4 4 4 4 4 4 4 4 4 4 4 4 4 4 5 5 5 5 5 6 6 6
8 7 7 7 6 6 6 6 6 6 6 6 6 6 6 6 6 6 6 5 5 5 5 5 5 5 4 4 4 4 3 3 3 3 3 3 3 3 3 3 3 3 3 3 3 3 4 4 4 4 4 4 4 4 4 4 4 4 4 4 4 4 4 4 5 5 5 5 5
7 7 6 6 6 6 5 5 6 6 6 6 6 6 6 6 6 6 6 5 5 5 5 5 5 4 4 4 4 3 3 3 3 3 3 3 3 3 3 3 3 3 3 3 3 3 3 3 3 3 3 4 4 4 4 4 4 4 4 4 4 4 4 4 4 4 4 5 5
6 6 6 6 6 5 5 5 6 6 6 6 6 6 6 6 6 5 5 5 5 5 5 4 4 4 4 4 3 3 3 3 3 3 3 3 3 3 3 3 3 3 3 3 3 3 3 3 3 3 3 3 3 3 3 3 3 4 4 4 4 4 4 4 4 4 4 4 4
6 6 6 6 5 5 5 6 6 6 6 6 6 6 6 5 5 5 5 5 5 4 4 4 4 4 4 3 3 3 3 3 3 3 3 3 3 3 3 3 3 3 3 3 3 2 3 3 3 3 3 3 3 3 3 3 3 3 3 3 4 4 4 4 4 4 4 4 4
6 6 6 5 6 6 6 6 6 6 6 6 6 5 5 5 5 5 5 4 4 4 4 4 4 3 3 3 3 3 3 2 2 2 2 2 2 2 2 2 3 3 2 2 2 2 2 2 2 2 2 3 3 3 3 3 3 3 3 3 3 3 3 3 4 4 4 4 4
6 6 6 6 6 6 6 6 6 6 6 5 5 5 5 5 5 4 4 4 4 4 3 3 3 3 3 3 2 2 2 2 2 2 2 2 2 2 2 2 2 2 2 2 2 2 2 2 2 2 2 2 2 2 2 2 2 2 2 3 3 3 3 3 3 3 4 4 4
6 6 6 6 6 6 6 6 5 5 5 5 5 5 5 4 4 4 4 3 3 3 3 3 3 2 2 2 2 2 2 2 2 2 2 2 2 2 2 2 2 2 2 2 2 2 2 2 2 2 1 1 2 2 2 2 2 2 2 2 2 2 2 2 3 3 3 3 3
6 6 6 6 6 6 6 5 5 5 5 5 4 4 4 4 4 4 3 3 3 3 2 2 2 2 2 2 2 2 2 2 2 2 2 2 2 2 2 2 1 1 1 1 1 1 1 1 1 1 1 1 1 1 1 1 1 1 1 1 2 2 2 2 2 2 3 3 3
6 6 6 6 6 5 5 5 5 5 5 4 4 4 4 4 3 3 3 3 2 2 2 2 2 2 2 2 1 1 1 1 1 1 1 1 1 1 1 1 1 1 1 1 1 1 1 1 1 1 1 1 1 1 1 1 1 1 1 1 1 1 1 2 2 2 2 2 3
6 6 6 6 5 5 5 5 5 4 4 4 4 4 3 3 3 3 3 2 2 2 2 2 1 1 1 1 1 1 1 1 1 1 1 1 1 1 1 1 0 0 0 0 0 0 0 0 0 0 0 0 0 0 0 0 0 0 0 0 0 1 1 1 1 1 2 2 2
6 6 6 5 5 5 5 4 4 4 4 4 4 3 3 3 3 3 2 2 2 2 1 1 1 1 1 1 1 1 1 1 0 0 0 0 0 0 0 0 -0 -0 -0 -0 -0 -0 -0 -0 -1 -1 -1 -1 -1 -1 -1 -1 -1 -1 -1 -1 -1 -1 -0 -0 0 0 1 1 1
6 5 5 5 5 4 4 4 4 4 4 4 3 3 3 3 3 2 2 2 2 1 1 1 1 1 1 1 1 0 0 0 -0 -0 -0 -0 -0 -0 -0 -0 -0 -0 -1 -1 -1 -1 -1 -1 -2 -2 -2 -2 -2 -2 -2 -2 -2 -2 -2 -2 -2 -2 -1 -1 -1 -1 -1 -0 0
5 5 5 5 4 4 4 4 4 4 3 3 3 3 3 3 2 2 2 2 1 1 1 1 1 0 0 0 -0 -0 -0 -0 -1 -1 -1 -1 -0 -0 -0 -1 -1 -1 -1 -1 -2 -2 -2 -2 -2 -2 -2 -2 -2 -2 -2 -2 -2 -2 -2 -2 -2 -2 -2 -2 -2 -2 -1 -1 -1
5 5 4 4 4 4 4 4 3 3 3 3 3 3 3 3 2 2 2 1 1 1 0 0 -0 -0 -0 -1 -1 -1 -1 -1 -1 -1 -1 -1 -1 -0 -1 -1 -1 -1 -2 -2 -2 -3 -3 -3 -3 -3 -3 -3 -3 -3 -3 -3 -3 -3 -3 -2 -2 -2 -2 -2 -2 -2 -2 -2 -2
4 4 4 4 4 4 3 3 3 3 3 3 3 3 3 2 2 2 1 1 1 0 0 -0 -0 -1 -1 -1 -1 -1 -1 -1 -1 -1 -1 -1 -1 -1 -1 -1 -2 -2 -2 -2 -3 -3 -3 -3 -3 -3 -3 -3 -3 -3 -3 -3 -3 -3 -3 -3 -3 -2 -2 -2 -2 -2 -2 -2 -2
4 4 4 4 3 3 3 3 3 3 3 3 3 2 2 2 2 1 1 1 1 0 0 -0 -0 -1 -1 -1 -1 -1 -1 -1 -1 -1 -1 -1 -1 -1 -1 -2 -2 -2 -3 -3 -3 -3 -4 -4 -4 -4 -4 -4 -4 -4 -3 -3 -3 -3 -3 -3 -3 -3 -3 -2 -2 -2 -2 -2 -2
4 4 4 3 3 3 3 3 3 3 3 3 2 2 2 2 1 1 1 1 1 0 0 -0 -0 -1 -1 -0 -0 -0 -0 -0 -0 -1 -1 -1 -1 -1 -2 -2 -2 -2 -3 -3 -3 -4 -4 -4 -4 -4 -4 -4 -4 -4 -4 -3 -3 -3 -3 -3 -3 -3 -3 -2 -2 -2 -2 -2 -2
4 4 3 3 3 3 3 3 3 3 2 2 2 2 2 1 1 1 1 1 0 0 -0 -0 -0 -0 -0 -0 0 -0 -0 -0 -1 -1 -1 -1 -1 -1 -2 -2 -2 -3 -3 -3 -3 -4 -4 -4 -4 -4 -4 -4 -4 -4 -4 -4 -3 -3 -3 -3 -3 -3 -3 -2 -2 -2 -2 -2 -2
3 3 3 3 3 3 2 2 2 2 2 2 2 1 1 1 1 0 0 0 0 0 0 0 0 0 0 0 -0 -0 -0 -1 -1 -1 -1 -1 -1 -2 -2 -2 -3 -3 -3 -3 -3 -4 -4 -4 -4 -4 -4 -4 -4 -4 -4 -4 -4 -3 -3 -3 -3 -3 -2 -2 -2 -2 -2 -2 -2
3 3 3 3 2 2 2 2 2 2 1 1 1 1 0 0 0 0 0 0 0 1 1 0 0 0 -0 -0 -0 -0 -0 -0 -0 -1 -1 -1 -1 -2 -2 -3 -3 -3 -3 -3 -3 -4 -4 -4 -4 -4 -4 -4 -4 -4 -4 -4 -4 -3 -3 -3 -3 -3 -3 -2 -2 -2 -2 -2 -2
3 3 2 2 2 2 2 2 1 1 1 1 0 0 0 0 0 0 0 1 1 1 0 0 0 0 -0 -0 -0 -0 -0 -0 -0 -1 -1 -1 -2 -2 -3 -3 -3 -3 -3 -3 -3 -4 -4 -4 -4 -4 -4 -4 -4 -4 -4 -4 -4 -3 -3 -3 -3 -3 -3 -3 -2 -2 -2 -2 -2
2 2 2 2 2 2 1 1 1 1 0 0 0 0 -0 0 0 0 1 1 0 0 0 0 0 -0 -0 -0 -0 -0 -0 -0 -1 -1 -2 -2 -3 -3 -3 -3 -3 -3 -3 -3 -4 -4 -4 -4 -4 -4 -4 -4 -4 -4 -4 -4 -4 -4 -3 -3 -3 -3 -3 -3 -3 -2 -2 -2 -2
2 2 2 2 1 1 1 1 0 0 -0 -0 -0 -0 -0 -0 0 0 0 0 0 0 0 0 -0 -0 -0 -0 -0 -0 -1 -1 -1 -2 -2 -3 -3 -3 -3 -3 -3 -3 -3 -4 -4 -4 -4 -4 -4 -4 -4 -4 -4 -4 -4 -4 -4 -4 -3 -3 -3 -3 -3 -3 -3 -2 -2 -2 -2
2 2 1 1 1 1 0 0 -0 -0 -0 -0 -0 -0 -0 -0 -0 -0 -0 -0 0 0 -0 -0 -0 -0 -0 -0 -1 -1 -1 -2 -2 -3 -3 -3 -3 -3 -4 -4 -3 -4 -4 -4 -4 -4 -4 -4 -4 -4 -4 -4 -4 -4 -4 -4 -4 -3 -3 -3 -3 -3 -3 -3 -2 -2 -2 -2 -2
2 1 1 1 0 0 -0 -0 -0 -1 -1 -1 -1 -1 -1 -1 -0 -0 -0 0 -0 -0 -0 -0 -0 -0 -1 -1 -1 -1 -2 -2 -3 -3 -3 -4 -4 -4 -4 -4 -4 -3 -4 -4 -4 -4 -4 -4 -4 -4 -4 -4 -4 -4 -4 -3 -3 -3 -3 -3 -2 -2 -2 -2 -2 -2 -2 -2 -2
2 1 0 0 -0 -0 -0 -0 -1 -1 -1 -1 -1 -1 -1 -1 -0 -0 -0 -0 -0 -0 -0 -0 -0 -1 -1 -1 -2 -2 -2 -3 -3 -4 -4 -4 -4 -4 -4 -4 -3 -3 -3 -3 -4 -4 -4 -4 -4 -4 -4 -4 -4 -4 -3 -3 -3 -3 -3 -2 -2 -2 -2 -2 -2 -2 -2 -2 -2
1 1 0 -0 -0 -0 -0 -1 -1 -1 -1 -1 -1 -1 -1 -0 -0 -0 -0 -0 -0 -1 -1 -1 -1 -1 -1 -2 -2 -3 -3 -3 -3 -4 -4 -4 -4 -4 -4 -4 -3 -3 -3 -4 -4 -4 -4 -4 -4 -4 -4 -4 -3 -3 -3 -3 -3 -2 -2 -2 -2 -2 -2 -2 -2 -2 -2 -2 -2
1 1 0 -0 -0 -0 -1 -1 -1 -1 -1 -1 -1 -1 -0 -0 -0 -0 -0 -1 -1 -1 -1 -1 -1 -2 -2 -3 -3 -3 -3 -3 -4 -4 -4 -4 -4 -4 -4 -4 -3 -3 -3 -3 -4 -4 -4 -4 -3 -3 -3 -3 -3 -3 -3 -3 -2 -2 -2 -1 -1 -1 -1 -1 -1 -1 -1 -2 -2
1 0 -0 -0 -1 -1 -1 -1 -1 -1 -1 -1 -1 -1 -1 -1 -1 -1 -1 -1 -1 -1 -1 -1 -2 -2 -3 -3 -3 -3 -4 -4 -4 -4 -4 -4 -4 -4 -4 -4 -4 -3 -3 -3 -3 -3 -3 -3 -3 -3 -3 -3 -3 -3 -3 -2 -2 -2 -1 -1 -1 -1 -1 -1 -1 -1 -1 -1 -1
0 -0 -1 -1 -1 -1 -1 -1 -1 -1 -1 -1 -1 -1 -1 -1 -1 -1 -1 -1 -1 -2 -2 -2 -2 -3 -3 -3 -3 -4 -4 -4 -4 -4 -4 -4 -4 -4 -4 -4 -4 -3 -3 -3 -3 -3 -3 -3 -3 -3 -3 -3 -3 -2 -2 -2 -2 -1 -1 -1 -1 -1 -1 -1 -1 -1 -1 -1 -1
-0 -1 -1 -1 -1 -1 -1 -1 -1 -1 -1 -1 -1 -1 -1 -1 -1 -1 -1 -1 -2 -2 -2 -2 -3 -3 -3 -3 -4 -4 -4 -4 -4 -4 -4 -4 -4 -4 -4 -3 -3 -3 -3 -3 -3 -3 -3 -3 -3 -3 -3 -3 -2 -2 -2 -2 -1 -1 -1 -1 -1 -1 -1 -0 -0 -1 -1 -1 -1
Height
798 799 799 800 800 800 800 801 800 801 801 801 801 801 801 800 800 800 799 799 798 798 797 796 796 796 795 795 795 794 794 793 793 792 792 791 791 791 790 789 789 788 788 787 786 786 785 785 784 783 781 781 780 779 778 777 777 776 775 774 773 772 772 771 770 769 768 768 767
798 798 798 798 799 799 799 800 800 800 800 800 800 800 800 800 799 799 798 798 797 797 796 796 795 794 794 794 793 793 792 792 791 791 790 790 789 789 788 788 787 786 786 785 785 784 783 783 782 781 780 778 778 776 776 775 775 774 773 772 771 771 770 769 768 767 766 766 765
797 797 797 798 798 798 799 799 799 799 799 799 799 799 799 798 798 798 797 797 796 796 795 794 794 793 793 792 792 791 791 791 790 789 789 788 787 787 786 786 785 784 784 783 783 782 781 781 780 779 777 776 775 774 773 772 772 771 770 769 769 768 767 766 765 765 764 763 762
796 796 797 797 798 798 798 798 798 798 798 798 798 798 798 797 797 796 796 796 795 794 794 793 792 792 791 791 791 790 790 789 788 787 787 786 786 785 784 784 783 782 782 781 781 780 779 779 778 776 775 774 773 771 771 770 769 769 767 767 766 766 765 763 763 762 762 761 760
795 796 796 796 797 797 797 797 797 797 797 797 797 797 797 796 796 795 795 794 794 793 792 792 791 790 790 789 789 788 788 787 786 786 785 784 784 783 782 782 781 780 780 779 778 777 777 776 775 774 772 771 770 769 768 767 767 766 765 764 763 763 762 761 760 760 759 758 757
795 795 796 796 796 796 796 796 796 796 796 796 796 796 796 795 795 794 793 793 792 791 791 791 790 789 788 788 787 786 786 785 785 784 783 782 782 781 780 780 779 778 777 777 776 775 775 774 773 771 770 769 767 766 765 765 764 763 762 761 761 760 759 758 757 756 756 755 754
795 796 796 796 796 796 796 796 796 796 796 796 795 795 794 794 793 793 792 792 791 790 790 789 788 787 787 786 785 785 784 783 782 782 781 781 780 779 778 778 777 776 775 774 774 773 772 771 770 769 767 766 765 763 762 762 761 761 759 758 757 757 756 755 754 754 753 752 751
795 796 796 796 795 795 795 795 795 795 795 795 794 794 793 793 792 791 791 790 790 789 788 787 786 786 785 784 783 783 782 781 781 780 779 779 778 777 776 776 775 774 773 772 771 770 769 769 768 766 765 763 762 761 760 759 759 758 757 756 755 754 754 753 752 751 751 750 749
795 795 795 795 795 795 795 795 794 794 794 793 793 792 792 791 791 790 789 789 788 787 786 786 785 784 783 782 781 781 780 780 779 778 777 776 776 775 774 773 772 771 770 769 769 767 767 766 765 763 762 761 759 758 757 756 756 755 754 753 752 751 751 750 749 749 748 747 746
795 795 795 795 794 794 794 793 793 793 792 792 791 791 790 790 789 788 788 787 786 785 785 784 783 782 781 781 780 779 778 778 777 776 775 774 773 772 771 771 770 768 767 766 766 765 764 763 761 760 759 758 756 755 754 754 753 752 751 751 750 749 748 747 747 746 745 744 743
795 794 794 794 793 793 793 792 792 792 791 791 790 789 789 788 787 787 786 785 784 783 782 782 781 780 779 779 778 777 776 776 775 774 773 772 771 770 769 768 767 766 765 764 763 762 761 760 758 757 756 755 753 752 751 751 750 749 748 747 746 746 745 744 743 743 742 741 740
794 793 793 793 792 792 792 791 791 790 790 789 788 788 787 786 786 785 784 783 783 781 781 780 779 778 777 777 776 775 774 773 772 771 771 769 768 767 766 765 764 763 762 761 760 759 758 756 755 754 752 751 751 749 748 747 747 746 745 744 743 742 741 740 740 740 739 738 737
793 792 792 792 791 791 791 790 790 789 788 787 787 786 786 785 784 783 782 781 781 780 779 778 777 776 776 775 774 773 772 771 770 769 768 767 766 764 763 762 761 760 759 757 757 756 755 753 752 751 749 748 747 746 745 744 744 742 741 741 740 739 738 737 736 736 736 735 734
791 791 791 791 790 790 789 789 788 787 786 786 785 785 784 783 782 781 781 780 779 778 777 776 776 775 774 773 772 771 770 769 768 766 765 764 763 761 760 759 758 757 756 755 754 753 751 750 749 747 746 745 744 743 742 741 741 739 738 737 736 735 734 733 733 733 732 732 731
790 790 790 789 789 788 788 787 786 786 785 784 784 783 782 781 781 780 779 778 777 776 776 775 773 772 771 771 770 769 767 766 765 764 762 761 760 759 757 756 755 754 753 751 751 750 748 747 746 745 743 742 741 740 739 738 737 736 735 734 733 732 731 730 730 730 729 728 728
789 789 788 788 787 787 786 786 785 784 784 783 782 781 781 780 779 778 777 776 776 775 774 773 771 771 769 768 767 766 765 764 762 761 760 758 757 756 754 753 752 751 750 749 747 746 745 744 743 742 741 739 738 737 736 735 734 733 732 731 730 729 728 727 727 726 726 725 725
787 787 787 786 786 786 785 784 784 783 782 781 781 780 779 778 777 776 776 775 774 773 772 771 770 768 767 766 765 764 762 761 760 758 757 756 754 753 751 750 749 748 747 746 745 743 742 741 740 739 738 736 735 734 733 732 731 730 729 728 727 726 725 725 724 723 723 722 721
786 786 785 785 784 784 783 783 782 781 781 780 779 778 777 776 776 775 774 773 772 771 770 768 767 766 765 764 762 761 760 759 757 756 754 753 751 750 749 747 746 745 744 743 742 740 739 738 737 736 735 734 732 731 730 729 728 727 726 725 724 723 722 722 721 721 720 719 718
785 784 784 783 783 782 782 781 781 780 779 778 777 776 776 775 774 773 772 771 770 769 768 766 765 764 763 761 760 759 757 756 754 753 751 750 749 747 746 745 744 742 741 740 739 737 736 735 734 733 732 731 729 728 727 726 725 724 723 722 721 721 720 719 718 718 717 716 716
783 783 782 782 781 781 780 780 779 778 777 776 776 774 773 772 771 771 770 769 767 766 766 764 763 761 760 759 757 756 755 753 752 750 749 747 746 745 744 742 741 740 738 737 736 735 734 732 731 730 729 728 727 726 725 723 722 721 721 720 719 718 717 717 716 715 715 714 713
782 781 781 781 780 780 779 778 777 776 776 775 773 772 771 771 770 769 768 766 765 764 763 762 760 759 757 756 755 753 752 751 749 748 746 745 744 742 741 740 738 737 736 734 733 732 731 730 729 728 727 726 725 723 722 721 721 720 719 718 717 716 715 715 714 713 712 711 711
780 780 780 779 779 778 777 776 776 775 774 773 771 771 770 769 767 766 766 764 763 762 761 759 758 756 755 753 752 751 749 748 746 745 744 742 741 740 738 737 736 734 733 731 730 729 728 727 726 726 725 724 722 721 721 720 719 717 716 716 715 714 713 712 712 711 710 709 708
779 779 778 778 777 776 776 775 774 773 772 771 770 769 768 766 766 764 763 762 761 760 758 757 755 754 752 751 749 748 746 745 743 742 741 740 738 737 736 734 733 731 730 729 728 727 726 725 724 723 722 721 720 719 718 717 716 715 714 713 712 711 710 710 709 708 707 706 706
778 777 777 776 776 775 774 773 772 771 770 769 768 767 766 765 763 762 761 760 758 757 756 754 752 751 749 748 746 745 744 742 741 739 738 737 736 734 733 732 731 729 727 726 725 725 724 723 722 721 720 720 718 717 716 715 714 713 712 711 709 708 707 706 706 705 704 703 703
776 776 775 775 774 773 772 771 770 769 768 767 766 765 764 762 761 760 759 757 756 755 753 751 750 748 746 745 744 742 741 740 738 736 735 734 732 731 731 729 728 726 725 724 723 722 722 721 721 720 718 717 716 715 714 713 711 711 710 708 707 706 704 703 702 701 701 700 700
775 774 774 773 772 771 771 770 769 767 766 765 764 763 762 761 759 758 756 755 753 752 751 749 747 746 744 743 741 740 738 737 736 734 733 731 730 729 728 726 725 724 722 721 720 720 719 719 718 717 716 715 714 712 711 710 709 708 707 706 704 703 701 700 699 698 697 697 696
774 773 772 771 771 770 769 768 767 766 765 764 762 761 760 759 757 756 754 753 751 749 748 746 745 743 741 740 739 737 736 735 733 732 730 729 727 726 725 724 722 721 720 719 718 717 716 716 715 715 714 713 711 710 709 707 706 705 704 702 701 700 698 697 696 695 694 694 693
772 771 771 770 769 768 767 766 766 764 763 762 761 759 758 756 755 754 752 750 749 747 746 744 742 741 739 738 736 735 733 732 731 729 728 726 725 723 722 721 720 718 717 716 715 715 714 713 712 712 711 710 709 707 706 704 703 702 701 699 698 696 695 694 692 691 691 690 690
771 770 770 769 768 767 766 765 764 763 761 760 759 758 756 755 753 751 750 748 746 745 743 742 740 739 737 736 734 732 731 730 728 727 725 724 722 721 720 719 717 716 715 714 713 712 711 710 709 709 708 707 706 705 703 701 700 699 697 696 694 693 691 691 689 688 687 687 686
770 769 768 767 766 766 765 764 762 761 760 759 757 756 754 753 751 749 748 746 745 743 741 740 738 736 735 733 732 730 729 727 726 724 723 721 720 719 717 716 715 713 712 711 710 709 708 707 706 706 705 704 703 702 701 699 697 696 694 692 691 690 688 687 686 685 684 683 683
768 768 767 766 765 764 763 762 761 760 758 757 756 754 752 751 749 747 746 744 742 741 739 738 736 734 733 731 730 728 726 725 723 722 721 719 718 716 715 714 712 711 709 708 707 706 705 704 703 702 701 701 700 699 697 696 694 692 691 689 687 686 685 684 683 682 681 680 679
767 766 766 765 764 763 762 761 760 758 757 756 754 752 751 749 747 746 744 742 741 739 737 735 734 732 731 729 727 726 724 723 721 720 719 717 716 714 713 711 710 708 707 706 705 704 702 701 700 699 698 697 696 695 694 692 691 689 687 685 684 682 681 681 679 678 677 677 676
766 765 764 763 762 761 760 759 758 756 755 754 752 751 749 747 745 743 742 740 739 737 735 733 731 730 728 727 725 724 722 721 719 718 717 716 714 712 711 709 707 706 704 703 702 701 700 698 697 696 695 694 693 691 690 688 687 685 683 681 680 679 677 677 676 675 674 673 672
764 763 763 762 761 760 759 757 756 755 753 752 750 749 747 745 743 741 740 738 736 735 733 731 730 728 726 725 723 722 720 719 717 716 715 713 712 710 708 706 705 703 702 701 699 698 697 696 694 693 691 690 689 688 686 685 683 681 679 677 676 675 674 673 671 671 670 669 668
763 762 761 761 759 758 757 756 754 753 751 750 748 746 745 743 741 740 738 736 734 733 731 729 728 726 725 723 722 720 719 717 715 714 713 711 710 708 706 704 702 701 699 698 697 696 694 693 691 690 688 687 686 684 683 681 679 677 676 674 672 671 670 669 667 666 666 665 664
762 761 760 759 758 757 756 754 753 751 750 748 746 745 743 741 740 738 736 734 732 731 729 727 726 724 723 721 720 718 717 715 713 712 710 709 708 706 704 702 700 698 697 696 694 693 691 690 688 687 686 684 683 681 679 678 676 674 671 670 668 666 665 664 663 662 661 661 660
761 760 759 758 756 755 754 753 751 750 748 746 745 743 741 740 738 736 734 733 731 729 727 725 724 723 721 720 718 717 715 713 712 710 708 707 706 704 702 700 697 696 694 693 691 690 689 687 686 684 683 682 680 678 676 674 672 670 668 666 664 663 661 660 659 658 657 656 656
759 759 757 756 755 754 752 751 750 748 746 745 743 741 740 738 736 734 732 731 730 727 725 724 722 721 720 718 716 715 713 711 710 708 706 705 704 702 700 698 695 693 692 690 689 687 686 684 683 682 681 679 677 675 673 671 669 666 665 662 660 659 657 656 655 654 652 651 651
758 757 756 755 754 752 751 749 748 746 745 743 741 740 738 736 734 733 731 730 728 726 724 722 721 719 718 716 715 713 711 709 708 707 705 703 702 700 699 696 694 691 690 688 686 685 683 682 680 679 678 676 675 673 671 668 666 663 661 659 657 655 654 653 651 650 649 647 647
757 756 755 754 752 751 749 748 746 745 743 741 740 738 736 735 733 731 730 728 726 725 723 721 720 718 716 715 713 711 709 707 706 705 703 701 700 698 696 694 692 689 687 686 684 682 681 679 678 676 675 674 672 670 668 666 663 661 658 656 655 653 651 650 649 647 646 644 643
755 754 753 752 751 750 748 746 745 743 742 740 738 737 735 733 731 730 728 726 725 723 722 720 718 716 715 714 712 710 707 705 704 702 701 699 698 696 694 692 690 687 685 683 681 680 678 677 676 674 673 672 670 668 666 664 661 659 656 655 653 651 649 647 646 645 643 642 641
Wind_Speed
6 5 3 2 1 1 1 2 3 5 5 4 4 5 6 6 7 8 8 9 9 9 9 10 9 9 10 10 11 12 13 13 14 15 15 16 17 18 18 19 19 19 20 20 20 20 20 20 20 20 20 20 20 21 21 21 21 22 24 25 26 27 27 28 28 28 28 28 28
5 3 1 1 2 2 2 2 3 4 5 4 5 5 6 7 8 8 9 9 10 10 10 10 10 10 10 12 12 13 14 15 16 17 18 18 19 20 20 20 21 21 21 22 22 22 22 22 22 22 22 22 22 22 23 22 22 23 24 25 26 27 28 28 29 29 29 29 29
3 1 1 2 2 1 2 2 4 5 5 5 5 5 6 7 8 8 9 10 10 11 11 11 11 11 11 13 14 15 16 17 18 19 20 20 21 21 22 22 23 23 23 23 23 23 23 23 23 23 23 23 24 24 25 25 25 25 25 26 27 27 28 29 29 30 29 29 29
2 1 1 1 1 2 4 5 6 6 5 5 6 6 7 7 8 8 9 10 11 11 12 12 12 12 13 15 17 18 19 19 20 21 22 22 22 23 23 23 24 24 24 23 23 23 23 23 23 23 24 24 25 25 26 26 26 27 27 27 27 28 29 29 30 30 30 30 30
2 2 3 4 5 6 7 8 7 6 5 6 6 7 8 8 8 9 9 10 11 12 13 14 13 14 15 17 18 19 20 21 21 22 22 23 23 23 23 24 24 24 24 24 23 23 23 23 23 23 24 24 24 25 25 25 26 27 27 28 28 28 29 29 30 30 30 30 30
3 5 7 8 8 8 7 7 6 6 6 7 7 8 9 9 10 10 11 12 13 15 15 15 15 15 16 18 19 20 21 21 21 22 22 23 23 23 24 24 24 24 24 24 24 24 23 23 23 23 23 23 24 24 24 25 25 26 26 27 27 27 28 29 29 29 30 30 30
6 7 8 8 7 7 6 5 6 6 7 7 8 9 10 10 11 12 13 14 15 16 16 16 16 17 18 19 20 20 21 21 22 22 22 23 23 23 24 24 24 24 24 24 24 24 24 23 23 23 23 23 23 24 24 24 25 25 26 26 26 26 27 28 28 28 29 30 31
7 7 5 5 4 4 5 5 5 6 7 8 9 10 11 12 12 13 15 16 16 17 17 17 18 18 19 20 20 20 21 21 22 22 22 23 23 23 23 23 23 24 24 24 24 24 24 23 23 23 23 23 23 23 24 24 24 25 26 26 26 26 26 27 27 27 28 30 31
7 5 4 4 4 4 4 5 6 7 8 9 10 11 12 12 13 14 15 16 17 17 18 18 19 19 20 20 21 21 21 21 21 22 22 22 22 23 23 23 23 23 23 24 24 24 24 23 23 23 23 23 23 24 24 24 24 25 26 27 27 27 27 27 27 28 28 29 30
6 5 5 5 4 5 5 6 7 8 9 10 11 12 12 13 14 15 16 16 17 18 18 19 19 20 20 20 20 20 20 21 21 21 21 21 22 22 23 23 23 23 24 24 23 24 24 24 24 24 24 24 25 25 26 25 26 26 27 27 27 27 28 28 28 29 29 30 31
5 5 5 5 5 5 6 7 8 9 9 10 11 12 13 14 15 16 17 17 18 18 19 19 19 19 19 20 20 20 20 20 20 20 21 21 22 22 23 23 24 24 24 24 24 24 24 24 24 25 26 26 26 27 27 27 27 28 28 28 28 29 29 30 30 30 30 30 31
6 6 6 6 6 6 6 7 8 9 10 11 12 13 14 15 16 17 18 18 19 19 19 19 19 19 19 19 19 19 19 19 20 20 21 22 23 23 24 24 25 25 25 25 25 24 24 24 25 26 26 27 27 27 27 28 28 28 29 29 30 30 30 31 31 30 30 30 31
7 6 6 6 6 6 7 8 9 10 11 12 13 15 16 16 17 17 18 18 18 18 18 18 18 18 18 19 19 19 19 20 20 21 22 23 24 24 25 25 25 25 25 25 25 24 24 25 26 27 27 28 28 28 28 28 29 29 30 30 30 31 31 32 31 31 31 31 31
7 7 6 6 6 7 7 9 10 11 12 13 15 15 16 17 17 17 17 17 18 18 18 18 18 18 18 18 19 19 20 21 22 23 23 24 24 25 25 25 25 25 25 25 25 25 25 26 27 27 28 29 29 29 29 29 30 30 30 31 31 32 32 32 32 32 32 32 32
7 6 6 6 7 8 9 10 11 12 13 14 15 15 16 16 16 16 16 17 17 18 18 18 18 18 18 19 20 20 21 22 23 23 24 24 25 25 25 25 25 25 25 25 25 25 26 27 27 28 28 29 30 30 30 30 31 31 31 32 32 32 33 33 33 33 33 33 33
7 7 7 7 8 9 10 11 12 13 14 14 15 16 16 16 16 16 16 17 17 18 18 18 18 19 19 20 20 21 21 22 23 23 24 24 25 25 25 25 25 25 26 26 26 26 27 27 27 28 28 29 30 30 31 31 31 31 32 32 33 33 33 33 33 33 33 33 33
7 7 7 8 9 10 11 12 12 13 14 15 16 16 16 16 16 16 16 17 17 18 18 19 19 20 20 21 21 21 21 22 22 23 24 24 25 25 25 25 26 26 26 26 26 27 27 27 27 28 28 29 30 30 31 31 31 31 32 32 32 33 33 33 33 33 34 34 34
7 7 8 9 10 11 12 12 13 14 15 16 16 16 16 16 16 17 17 17 18 18 19 20 20 20 21 21 21 21 21 22 23 23 24 24 25 25 25 26 26 26 26 26 26 27 27 28 28 28 28 29 29 30 30 31 31 31 31 32 32 32 33 33 33 33 34 34 34
8 8 9 9 10 11 12 13 14 15 15 16 16 16 16 17 17 17 18 18 18 19 19 20 21 21 21 22 22 22 22 23 23 24 24 25 25 25 25 26 26 26 26 26 27 27 28 28 28 28 28 29 29 30 30 30 30 31 31 31 31 32 32 32 33 33 33 34 34
8 9 9 10 11 12 13 14 15 15 16 16 16 17 17 17 17 17 18 18 19 19 20 20 21 22 22 23 23 23 23 23 23 24 24 24 25 25 25 26 26 26 27 27 27 27 27 28 28 28 28 28 29 29 29 29 29 29 30 30 30 30 31 31 31 32 32 33 33
8 9 10 11 12 13 13 14 15 16 16 16 17 17 17 17 17 17 18 18 19 19 20 21 21 22 23 23 23 24 24 23 23 24 24 25 25 25 25 26 26 26 27 27 27 27 27 27 27 27 28 28 28 28 28 28 29 29 29 29 29 30 30 30 30 31 31 32 32
8 9 10 11 12 13 14 14 15 16 16 17 17 17 17 17 17 18 18 18 19 20 20 21 22 23 23 24 24 24 24 24 24 24 25 25 25 25 25 25 26 26 26 26 26 26 26 26 26 26 26 26 27 27 27 27 28 28 29 29 29 30 30 30 30 31 32 32 32
9 10 11 12 13 13 14 15 15 16 16 17 17 17 17 17 18 18 18 19 19 20 21 22 22 23 23 24 24 24 25 25 25 25 25 25 25 25 25 25 25 26 26 26 26 25 25 25 24 24 24 24 25 25 25 26 26 26 27 28 28 29 29 30 30 31 31 31 32
9 11 12 12 13 14 15 15 16 16 17 17 17 17 18 18 18 18 19 19 20 21 21 22 22 23 24 24 23 24 24 25 25 25 25 25 25 25 25 25 25 25 25 25 24 24 23 23 23 23 23 23 24 24 25 25 25 26 27 27 28 28 29 29 30 30 30 31 31
10 11 12 13 14 15 15 16 16 16 17 17 17 18 18 18 19 19 20 20 21 22 22 22 23 23 23 23 23 23 23 24 24 25 25 25 25 25 25 24 24 24 24 24 24 24 24 24 24 24 24 24 25 25 26 26 26 27 27 28 28 29 29 30 30 30 30 31 31
11 12 13 13 14 15 15 16 16 17 17 17 18 18 19 19 19 20 20 21 22 23 23 22 22 22 22 23 23 23 23 23 23 24 25 26 26 26 25 24 24 24 24 24 24 24 25 25 26 26 26 26 26 26 27 27 28 28 28 29 29 30 30 30 31 31 31 31 31
11 12 13 14 15 15 16 16 16 17 17 17 18 19 19 20 20 21 21 22 23 23 22 22 22 22 22 22 22 23 23 23 23 24 25 26 26 26 25 25 24 24 24 24 25 25 26 27 28 28 28 28 28 28 27 27 28 28 28 29 30 30 31 32 32 32 31 31 31
12 13 14 15 15 16 16 16 17 17 17 18 19 19 20 20 21 21 22 23 23 22 22 21 21 21 21 20 22 23 23 24 24 25 25 25 25 25 25 24 24 24 25 25 26 27 28 28 29 29 29 29 29 28 28 28 29 29 28 29 29 30 30 31 31 31 31 30 30
12 13 14 15 15 16 16 17 17 17 18 19 19 20 20 21 21 22 22 22 22 22 21 21 21 20 21 22 23 24 24 24 25 25 25 25 25 25 25 25 25 26 26 27 28 28 29 29 30 30 30 30 29 28 28 27 28 28 28 28 28 28 29 29 29 29 29 29 29
12 13 14 15 15 16 17 17 18 18 18 19 19 20 20 21 21 22 22 22 22 22 22 22 21 22 22 23 24 24 24 24 24 24 24 24 25 25 25 26 26 27 27 28 28 29 29 30 30 30 31 31 30 29 28 27 28 28 28 28 29 29 29 30 30 30 30 30 30
12 13 14 15 16 16 17 18 18 18 19 19 19 20 20 21 21 22 22 22 23 23 23 23 23 23 23 24 24 24 24 25 24 24 24 25 25 26 26 27 27 28 28 29 29 29 30 30 30 30 31 31 31 29 28 28 28 28 29 29 30 30 31 30 31 31 31 31 31
12 13 14 15 16 17 18 18 18 19 19 19 20 20 20 21 22 22 23 23 23 23 23 23 23 23 24 24 24 24 24 24 24 24 24 25 25 26 27 28 28 28 29 29 29 29 30 30 30 31 31 32 32 31 30 30 30 30 30 31 32 33 33 32 32 32 32 32 32
12 13 14 15 16 17 18 18 19 19 19 19 20 20 21 21 22 23 23 23 22 22 22 23 23 23 23 24 24 24 24 24 24 25 25 25 26 27 28 28 28 28 28 28 29 30 30 31 31 32 33 33 33 32 31 30 30 30 30 31 31 32 32 32 33 33 33 33 33
12 13 15 16 16 17 18 18 18 18 19 20 20 20 21 22 22 22 22 22 22 22 22 22 22 22 23 23 23 24 24 24 25 25 25 26 26 27 28 28 28 27 28 29 30 31 31 32 32 33 34 35 34 32 31 30 29 29 30 31 31 32 32 32 33 33 34 34 33
12 14 15 16 17 17 18 18 18 18 19 20 20 21 21 22 22 22 22 22 22 22 22 22 22 22 22 22 23 23 24 25 26 26 26 26 26 27 28 28 29 29 29 30 31 31 32 32 33 34 35 35 33 31 29 29 29 29 29 30 31 31 32 32 33 33 33 33 33
13 14 15 16 17 17 18 18 18 19 19 20 20 21 22 22 22 22 22 22 22 22 23 23 22 22 22 22 22 23 24 25 26 26 26 26 26 27 28 29 29 30 30 30 31 31 32 33 33 34 34 34 31 30 28 28 27 27 28 29 30 30 31 32 32 32 33 33 33
13 13 14 16 17 17 18 18 18 19 19 20 20 21 21 22 22 22 22 22 22 22 23 23 22 22 22 22 23 24 25 25 26 26 27 27 27 27 28 29 30 30 30 30 31 31 32 33 33 34 34 32 31 29 28 27 27 27 28 29 29 30 30 30 31 31 31 32 32
13 14 14 15 16 17 17 18 18 19 20 20 21 21 22 22 22 22 22 21 21 22 22 22 22 22 22 23 24 25 26 26 26 26 26 27 27 27 27 29 30 30 30 30 31 32 33 33 34 34 33 32 31 29 28 27 27 27 27 28 28 28 28 28 28 28 29 30 31
13 14 14 15 16 17 17 18 19 19 20 20 21 22 22 22 22 22 21 21 21 21 22 22 22 22 23 23 24 25 26 26 26 26 26 26 27 27 27 28 29 30 30 31 32 33 33 33 34 34 34 33 32 30 28 26 26 27 27 26 26 26 26 26 26 26 27 28 30
13 14 14 15 16 16 17 18 19 19 20 20 21 22 22 22 21 21 21 20 20 20 21 21 22 23 23 23 24 25 26 27 26 26 26 26 27 27 28 28 29 29 30 31 32 32 32 33 33 33 33 33 31 29 27 25 24 25 24 24 24 24 24 24 24 24 25 25 27
13 13 14 15 15 16 17 18 19 19 19 20 21 21 21 21 21 21 21 20 20 21 21 21 22 23 23 24 24 25 26 27 27 27 26 26 27 27 27 27 28 28 29 30 30 31 32 32 32 32 32 31 30 28 25 23 22 22 23 23 23 23 23 23 24 23 24 25 26
Wind_Direction
149 149 148 143 37 3 350 322 328 331 326 312 305 303 303 301 301 300 299 298 297 297 296 296 294 295 297 301 303 303 301 300 298 297 296 295 294 293 293 293 292 291 290 289 288 287 286 284 282 279 276 274 272 270 268 266 266 265 264 263 263 263 264 265 265 265 265 264 264
147 145 119 1 351 351 345 327 323 324 320 305 301 300 299 297 296 296 296 296 295 295 294 293 292 293 296 299 301 301 300 298 297 296 294 293 292 292 291 291 290 289 288 287 286 285 283 282 280 278 276 273 271 269 267 265 264 264 263 263 262 262 263 263 263 264 264 264 264
138 106 26 4 358 341 313 303 303 302 299 295 294 294 293 292 291 291 292 292 293 293 292 292 291 292 295 298 299 299 298 296 295 294 293 291 290 290 289 288 287 286 285 284 283 281 280 279 277 276 274 272 270 268 267 266 264 263 263 263 262 262 262 262 262 263 264 264 263
100 59 32 345 301 296 295 296 297 297 294 291 290 289 288 287 285 286 287 289 290 290 291 292 291 291 293 296 296 296 294 293 292 291 290 289 288 287 287 286 285 284 283 281 279 278 276 276 275 274 272 271 269 267 266 265 264 263 263 263 262 262 261 261 262 262 263 263 263
38 354 327 309 299 295 294 295 294 292 288 287 287 287 286 285 284 286 288 289 290 291 292 292 291 290 290 292 292 292 291 290 289 288 287 286 286 285 284 283 282 281 280 279 277 275 274 273 272 271 270 269 268 267 265 265 264 263 263 263 262 262 262 261 261 261 261 262 261
342 322 311 303 298 295 293 292 288 284 281 282 282 283 285 286 288 289 291 292 292 292 292 291 289 288 288 289 289 289 289 288 287 286 285 284 283 283 282 281 279 278 277 276 275 274 273 271 270 269 268 268 267 266 265 264 264 263 263 262 262 261 261 261 261 261 260 260 260
315 304 297 292 289 288 287 284 281 279 279 279 279 281 284 286 288 290 291 292 292 292 291 289 288 287 287 287 287 287 287 286 285 284 283 282 282 281 280 279 278 276 275 274 274 273 271 270 269 268 267 266 266 265 264 263 262 262 262 262 262 261 261 261 261 261 260 260 260
292 283 274 270 272 274 274 274 275 275 277 278 279 282 285 287 288 289 290 290 290 290 289 288 287 286 286 285 285 285 284 283 283 282 281 280 280 280 279 278 277 275 274 273 272 271 270 269 267 267 266 265 265 264 264 262 261 261 261 261 262 262 261 261 260 260 260 259 259
274 262 250 247 250 257 262 267 271 274 277 279 281 284 285 286 286 287 288 288 288 288 288 287 286 286 285 284 284 283 283 282 281 280 279 278 278 277 277 277 276 275 274 273 272 271 270 268 267 266 265 264 264 264 263 262 261 260 260 261 262 261 261 260 260 259 259 259 259
251 245 242 246 248 254 261 269 273 276 278 280 282 284 285 285 285 286 286 287 288 288 287 287 286 286 285 284 283 282 281 280 279 278 277 276 276 276 276 276 275 275 275 274 273 272 271 269 268 266 265 264 263 263 263 262 261 260 260 260 260 260 260 260 259 259 259 258 258
235 236 240 246 250 256 265 272 276 278 280 283 285 287 288 287 287 288 289 289 288 287 287 287 286 286 285 284 282 281 280 279 278 277 277 276 276 276 276 275 275 275 275 274 274 273 272 270 268 267 266 265 264 264 264 262 261 260 259 259 259 259 259 259 258 258 258 258 257
229 233 238 244 251 260 268 275 279 282 284 286 289 291 291 292 292 292 292 291 289 288 288 288 287 286 284 283 282 281 280 279 279 279 278 278 278 278 278 277 277 276 275 275 274 273 272 270 268 268 267 266 265 265 264 263 262 261 260 259 258 258 257 257 256 256 256 256 256
226 232 239 247 256 264 272 278 283 286 288 291 293 294 295 295 295 294 293 292 290 290 290 289 288 286 285 284 283 283 282 282 281 281 281 281 280 280 280 279 278 277 276 275 274 272 271 270 269 268 268 267 266 265 264 264 263 262 261 260 259 258 257 256 256 255 255 255 255
226 233 241 252 262 271 279 285 289 292 293 295 297 298 298 298 297 296 294 293 292 291 291 290 289 287 286 285 285 285 284 284 284 283 282 282 282 281 280 279 279 278 277 276 274 272 271 270 269 269 268 268 267 266 265 264 263 262 262 261 260 259 258 258 257 257 256 256 255
229 237 246 259 270 280 287 292 295 297 298 299 300 301 300 299 298 296 295 293 292 292 291 291 290 289 287 286 286 285 285 285 285 284 283 283 282 281 280 280 279 279 278 277 275 273 272 271 270 270 269 269 268 267 266 265 264 263 262 261 261 260 260 259 259 258 257 257 256
238 248 259 270 280 287 293 297 299 301 301 302 302 302 301 299 298 297 295 294 293 293 292 291 290 290 289 288 286 286 286 286 285 284 283 283 283 282 281 281 280 280 279 278 277 275 273 272 271 270 269 269 268 268 267 266 265 264 263 262 261 261 260 260 259 259 258 258 257
250 262 272 281 289 294 298 301 302 303 303 303 302 301 300 298 298 296 295 293 293 293 292 291 291 290 290 289 288 287 287 286 285 285 284 284 284 283 282 282 281 281 280 279 278 277 275 274 272 271 270 269 269 268 268 267 266 265 264 263 262 262 261 261 260 260 259 259 258
265 275 283 290 296 299 302 303 304 303 303 302 301 300 298 297 296 295 294 293 292 292 292 291 290 290 289 289 288 288 287 286 286 285 284 284 284 284 283 283 282 282 281 280 279 278 277 275 274 273 272 270 270 269 268 268 267 266 265 264 264 263 262 262 261 261 260 259 259
278 286 292 297 301 303 304 304 304 303 302 301 300 298 297 296 295 294 294 293 292 292 292 291 291 290 289 289 289 288 287 286 286 285 285 285 284 284 284 283 283 283 282 281 280 278 277 277 276 274 273 272 271 270 270 269 269 268 267 267 266 265 264 263 262 262 261 260 260
288 294 299 303 304 305 305 304 303 302 301 300 299 298 297 296 295 294 293 293 293 292 292 291 291 291 291 290 290 289 288 287 287 286 286 286 285 285 284 284 284 283 282 281 280 279 279 278 277 276 275 274 274 273 273 273 272 272 271 271 270 269 268 267 266 264 263 262 261
295 300 303 305 306 305 304 303 302 301 300 299 298 298 297 296 295 294 294 293 294 293 292 291 292 292 292 292 291 290 290 289 288 287 287 287 286 285 285 285 285 284 283 283 282 281 280 280 279 278 278 277 276 276 276 275 275 274 274 273 272 271 270 270 269 268 267 265 264
300 303 305 306 305 304 303 303 302 301 300 300 299 299 298 298 297 295 295 295 294 294 293 293 293 293 293 292 292 292 291 291 289 288 288 287 287 286 286 286 285 285 284 283 283 282 281 281 280 279 279 278 277 277 276 275 275 274 274 273 272 271 270 270 269 268 267 266 266
302 305 306 306 305 304 304 303 302 302 301 301 300 300 299 299 298 297 297 296 296 295 295 294 294 294 293 292 292 292 291 291 290 289 288 287 287 287 287 286 286 285 284 284 283 282 282 282 281 280 280 279 278 277 276 275 275 274 273 273 272 271 270 269 267 266 266 265 264
304 306 307 306 306 305 304 304 303 303 302 302 301 301 301 300 300 300 299 298 297 296 295 294 294 293 293 292 291 290 290 290 290 289 289 288 288 288 288 287 286 285 284 283 282 281 281 281 282 282 281 280 279 278 277 276 275 275 274 274 273 272 270 269 267 266 265 264 263
305 306 307 307 307 306 305 305 304 303 303 303 302 302 302 302 302 302 300 299 299 298 296 294 293 292 292 292 291 290 289 289 289 289 290 290 290 289 289 288 287 285 284 283 281 280 279 279 279 280 280 279 279 278 277 276 275 274 274 273 273 272 271 270 268 267 265 264 263
308 308 308 308 307 306 306 305 304 303 303 303 303 303 304 304 304 303 302 301 300 299 298 296 294 293 293 292 291 291 290 290 289 290 290 291 291 290 289 288 287 285 284 282 281 280 280 278 277 277 277 278 277 277 277 276 275 274 273 272 272 272 271 270 269 268 266 265 263
310 310 309 308 307 306 305 305 304 304 304 304 304 305 305 305 305 304 303 302 301 300 298 296 294 294 294 293 292 292 291 291 291 291 291 291 290 290 289 288 287 285 284 283 282 281 281 280 279 277 277 276 276 276 275 275 275 274 272 271 271 270 270 270 269 268 267 266 264
311 310 309 308 307 306 305 305 305 305 305 305 306 306 306 305 305 304 303 302 301 300 298 297 295 295 295 293 293 293 293 292 292 292 291 291 290 290 289 289 288 286 285 284 284 283 282 281 280 279 278 277 276 275 275 274 274 274 273 271 270 269 268 268 268 268 267 266 264
311 310 309 307 306 306 306 306 306 306 306 306 306 306 305 305 304 304 303 301 300 300 299 298 297 296 295 295 294 294 293 293 293 292 292 291 291 290 290 289 288 287 286 285 285 284 284 283 282 281 280 278 277 276 275 274 274 273 272 271 270 269 268 267 267 266 266 265 264
310 309 308 307 306 306 306 307 307 307 307 306 306 305 305 304 304 303 302 301 301 300 300 299 297 296 294 294 295 294 294 294 294 293 293 293 293 292 291 290 289 288 288 287 287 286 285 285 284 283 282 280 279 277 275 274 273 273 272 271 269 268 268 267 267 266 265 264 264
309 309 308 307 306 306 307 307 307 307 306 306 305 305 304 303 303 303 303 302 302 301 300 299 297 296 295 295 295 295 295 295 295 295 294 294 294 293 292 291 290 290 289 289 288 287 287 286 285 285 284 283 281 279 276 274 273 272 271 270 269 268 267 267 266 265 264 264 263
308 308 308 307 307 307 307 307 307 306 306 305 305 304 304 303 303 303 303 303 302 302 301 300 298 298 298 298 297 296 296 296 296 296 295 295 294 294 293 292 291 291 290 289 289 289 288 288 287 286 286 285 283 280 278 275 274 272 270 269 268 267 267 266 265 264 264 263 262
308 308 308 307 306 307 307 307 306 306 305 305 304 304 304 304 304 304 303 303 303 302 301 300 300 299 299 299 299 298 298 297 297 296 296 295 295 294 293 293 292 291 291 291 290 290 290 290 289 288 288 287 285 283 280 277 274 272 271 269 268 267 265 264 264 263 263 262 261
307 308 307 307 306 306 306 306 305 304 304 304 304 304 304 305 305 304 303 303 303 302 301 300 300 299 298 299 299 298 298 298 297 297 296 296 295 295 294 293 292 292 292 292 292 292 291 291 290 290 290 289 288 285 282 279 276 274 272 270 269 268 266 265 264 263 262 261 260
308 308 307 306 305 305 305 305 304 303 304 304 304 304 305 305 305 304 303 304 303 302 301 301 300 299 299 299 299 298 298 298 297 297 296 296 296 295 294 293 293 293 293 292 292 293 292 292 292 291 291 291 289 286 284 281 278 275 272 271 270 269 267 266 265 263 262 260 258
309 308 306 305 304 304 304 304 304 304 304 304 304 304 305 305 305 305 305 304 304 303 302 302 302 301 301 300 300 299 298 298 297 297 297 296 296 296 295 294 294 294 294 294 293 293 293 293 293 293 292 292 290 288 286 283 279 276 275 273 271 269 267 267 265 263 262 261 259
309 307 305 303 303 303 303 304 304 304 304 304 304 304 304 305 305 306 306 306 305 304 303 303 303 303 302 302 301 299 298 297 297 297 297 297 297 296 296 296 295 295 295 295 295 294 294 294 294 294 293 292 290 289 287 284 281 279 277 275 273 271 269 267 265 263 261 260 258
309 306 304 303 303 303 303 304 304 304 303 304 305 305 305 306 306 306 307 306 305 304 303 303 303 303 302 302 300 299 298 297 297 297 297 298 297 296 296 296 296 296 296 296 296 295 295 295 295 295 294 292 290 288 287 285 283 280 278 277 275 272 270 267 266 264 261 259 257
308 306 304 303 303 303 303 303 304 304 304 304 305 306 306 306 306 306 306 305 303 303 302 302 302 302 302 302 301 299 299 298 298 298 298 298 297 296 296 295 295 295 296 296 296 295 295 295 295 295 294 293 291 289 287 285 283 282 280 278 276 275 274 272 269 267 264 260 258
306 305 303 303 302 302 303 304 304 304 304 305 305 306 306 305 304 304 304 303 302 302 302 302 302 302 302 302 301 300 299 299 300 299 298 298 297 297 296 295 294 294 295 295 295 295 295 295 295 296 295 294 293 292 291 289 288 287 286 284 283 282 282 280 277 274 272 268 264
303 303 303 303 302 303 303 304 304 304 305 305 305 305 305 304 303 303 303 303 303 303 303 303 302 302 302 302 301 300 300 300 300 300 299 298 298 297 296 296 295 294 294 294 295 295 295 295 295 296 297 296 296 297 298 297 296 294 293 292 291 289 288 287 285 283 280 278 274